Time,TemperatureF,DewpointF,PressureIn,WindDirection,WindDirectionDegrees,WindSpeedMPH,WindSpeedGustMPH,Humidity,HourlyPrecipIn,Conditions,Clouds,dailyrainin,SoftwareType,DateUTC
2013-01-06 00:00:00,33.2,25.8,30.20,SW,217,2.0,4.0,74,0.00,,---,0.00,VWS V13.01,2013-01-06 05:00:00,
2013-01-06 00:01:00,33.3,25.9,30.20,SW,217,1.0,4.0,74,0.00,,---,0.00,VWS V13.01,2013-01-06 05:01:00,
2013-01-06 00:03:00,33.2,25.8,30.19,SSW,212,4.0,5.0,74,0.00,,---,0.00,VWS V13.01,2013-01-06 05:03:00,
2013-01-06 00:08:00,33.3,25.9,30.19,SW,214,3.0,5.0,74,0.00,,---,0.00,VWS V13.01,2013-01-06 05:08:00,
2013-01-06 00:13:00,33.3,25.6,30.18,SW,227,0.0,5.0,73,0.00,,---,0.00,VWS V13.01,2013-01-06 05:13:00,
2013-01-06 00:18:00,33.4,26.0,30.18,SW,227,2.0,5.0,74,0.00,,---,0.00,VWS V13.01,2013-01-06 05:18:00,
2013-01-06 00:23:00,33.3,25.9,30.18,SSW,207,3.0,5.0,74,0.00,,---,0.00,VWS V13.01,2013-01-06 05:23:00,
2013-01-06 00:28:00,33.3,25.9,30.18,SW,226,2.0,5.0,74,0.00,,---,0.00,VWS V13.01,2013-01-06 05:28:00,
2013-01-06 00:33:00,33.4,26.0,30.19,SW,225,3.0,5.0,74,0.00,,---,0.00,VWS V13.01,2013-01-06 05:33:00,
2013-01-06 00:38:00,33.4,25.7,30.19,SW,229,2.0,6.0,73,0.00,,---,0.00,VWS V13.01,2013-01-06 05:38:00,
2013-01-06 00:43:00,33.4,25.7,30.19,SW,220,3.0,6.0,73,0.00,,---,0.00,VWS V13.01,2013-01-06 05:43:00,
2013-01-06 00:48:00,33.4,25.7,30.19,SSW,211,3.0,6.0,73,0.00,,---,0.00,VWS V13.01,2013-01-06 05:48:00,
2013-01-06 00:53:00,33.4,25.7,30.19,SW,221,5.0,6.0,73,0.00,,---,0.00,VWS V13.01,2013-01-06 05:53:00,
2013-01-06 00:58:00,33.4,25.7,30.18,SW,221,2.0,6.0,73,0.00,,---,0.00,VWS V13.01,2013-01-06 05:58:00,
2013-01-06 01:03:00,33.4,25.7,30.17,SSW,196,2.0,4.0,73,0.00,,---,0.00,VWS V13.01,2013-01-06 06:03:00,
2013-01-06 01:08:00,33.4,25.7,30.17,SW,227,5.0,6.0,73,0.00,,---,0.00,VWS V13.01,2013-01-06 06:08:00,
2013-01-06 01:13:00,33.4,25.7,30.17,SW,230,2.0,6.0,73,0.00,,---,0.00,VWS V13.01,2013-01-06 06:13:00,
2013-01-06 01:18:00,33.5,25.8,30.17,SW,219,2.0,6.0,73,0.00,,---,0.00,VWS V13.01,2013-01-06 06:18:00,
2013-01-06 01:23:00,33.6,25.9,30.17,WSW,240,4.0,6.0,73,0.00,,---,0.00,VWS V13.01,2013-01-06 06:23:00,
2013-01-06 01:28:00,33.7,26.0,30.17,WSW,244,3.0,9.0,73,0.00,,---,0.00,VWS V13.01,2013-01-06 06:28:00,
2013-01-06 01:33:00,33.7,26.0,30.17,SW,227,4.0,6.0,73,0.00,,---,0.00,VWS V13.01,2013-01-06 06:33:00,
2013-01-06 01:38:00,33.7,26.0,30.17,SW,221,3.0,6.0,73,0.00,,---,0.00,VWS V13.01,2013-01-06 06:38:00,
2013-01-06 01:43:00,33.7,26.0,30.17,SW,229,6.0,7.0,73,0.00,,---,0.00,VWS V13.01,2013-01-06 06:43:00,
2013-01-06 01:48:00,33.7,26.0,30.17,SW,215,3.0,7.0,73,0.00,,---,0.00,VWS V13.01,2013-01-06 06:48:00,
2013-01-06 01:53:00,33.8,25.7,30.17,SW,225,6.0,7.0,72,0.00,,---,0.00,VWS V13.01,2013-01-06 06:53:00,
2013-01-06 01:58:00,33.9,25.8,30.17,SSW,213,3.0,9.0,72,0.00,,---,0.00,VWS V13.01,2013-01-06 06:58:00,
2013-01-06 02:03:00,33.9,25.8,30.17,SW,232,3.0,8.0,72,0.00,,---,0.00,VWS V13.01,2013-01-06 07:03:00,
2013-01-06 02:08:00,33.9,25.8,30.17,SW,223,3.0,8.0,72,0.00,,---,0.00,VWS V13.01,2013-01-06 07:08:00,
2013-01-06 02:13:00,33.9,25.8,30.17,WSW,244,4.0,9.0,72,0.00,,---,0.00,VWS V13.01,2013-01-06 07:13:00,
2013-01-06 02:18:00,33.9,25.8,30.17,SW,228,5.0,9.0,72,0.00,,---,0.00,VWS V13.01,2013-01-06 07:18:00,
2013-01-06 02:23:00,33.9,25.8,30.17,SW,225,5.0,9.0,72,0.00,,---,0.00,VWS V13.01,2013-01-06 07:23:00,
2013-01-06 02:28:00,34.0,25.9,30.17,SSW,198,3.0,9.0,72,0.00,,---,0.00,VWS V13.01,2013-01-06 07:28:00,
2013-01-06 02:33:00,34.0,25.9,30.17,SW,221,5.0,7.0,72,0.00,,---,0.00,VWS V13.01,2013-01-06 07:33:00,
2013-01-06 02:38:00,34.0,25.9,30.16,SW,228,4.0,7.0,72,0.00,,---,0.00,VWS V13.01,2013-01-06 07:38:00,
2013-01-06 02:43:00,33.9,25.8,30.16,SSW,199,5.0,7.0,72,0.00,,---,0.00,VWS V13.01,2013-01-06 07:43:00,
2013-01-06 02:48:00,33.9,25.8,30.16,SW,221,5.0,7.0,72,0.00,,---,0.00,VWS V13.01,2013-01-06 07:48:00,
2013-01-06 02:53:00,33.9,26.2,30.16,WSW,239,6.0,7.0,73,0.00,,---,0.00,VWS V13.01,2013-01-06 07:53:00,
2013-01-06 02:58:00,33.9,26.2,30.16,SSW,211,1.0,7.0,73,0.00,,---,0.00,VWS V13.01,2013-01-06 07:58:00,
2013-01-06 03:03:00,33.8,26.1,30.16,SW,219,5.0,6.0,73,0.00,,---,0.00,VWS V13.01,2013-01-06 08:03:00,
2013-01-06 03:08:00,33.8,26.1,30.16,SW,219,3.0,8.0,73,0.00,,---,0.00,VWS V13.01,2013-01-06 08:08:00,
2013-01-06 03:13:00,33.9,26.2,30.16,SSW,194,7.0,10.0,73,0.00,,---,0.00,VWS V13.01,2013-01-06 08:13:00,
2013-01-06 03:18:00,33.9,26.2,30.16,SSW,200,7.0,10.0,73,0.00,,---,0.00,VWS V13.01,2013-01-06 08:18:00,
2013-01-06 03:23:00,34.0,26.3,30.15,SW,236,7.0,10.0,73,0.00,,---,0.00,VWS V13.01,2013-01-06 08:23:00,
2013-01-06 03:28:00,34.0,26.3,30.15,SW,220,8.0,10.0,73,0.00,,---,0.00,VWS V13.01,2013-01-06 08:28:00,
2013-01-06 03:33:00,34.0,26.3,30.15,SSW,211,4.0,10.0,73,0.00,,---,0.00,VWS V13.01,2013-01-06 08:33:00,
2013-01-06 03:38:00,34.0,25.9,30.15,SW,225,4.0,10.0,72,0.00,,---,0.00,VWS V13.01,2013-01-06 08:38:00,
2013-01-06 03:43:00,34.0,26.3,30.15,SSW,205,4.0,10.0,73,0.00,,---,0.00,VWS V13.01,2013-01-06 08:43:00,
2013-01-06 03:48:00,34.0,26.3,30.15,SW,217,6.0,10.0,73,0.00,,---,0.00,VWS V13.01,2013-01-06 08:48:00,
2013-01-06 03:53:00,34.0,26.3,30.15,SW,218,5.0,10.0,73,0.00,,---,0.00,VWS V13.01,2013-01-06 08:53:00,
2013-01-06 03:58:00,34.0,26.3,30.14,SW,215,6.0,10.0,73,0.00,,---,0.00,VWS V13.01,2013-01-06 08:58:00,
2013-01-06 04:03:00,34.0,26.3,30.14,SW,217,6.0,6.0,73,0.00,,---,0.00,VWS V13.01,2013-01-06 09:03:00,
2013-01-06 04:08:00,33.9,26.2,30.14,WSW,246,5.0,8.0,73,0.00,,---,0.00,VWS V13.01,2013-01-06 09:08:00,
2013-01-06 04:13:00,34.0,26.3,30.14,WSW,237,4.0,8.0,73,0.00,,---,0.00,VWS V13.01,2013-01-06 09:13:00,
2013-01-06 04:18:00,34.0,26.3,30.14,SSW,213,3.0,8.0,73,0.00,,---,0.00,VWS V13.01,2013-01-06 09:18:00,
2013-01-06 04:23:00,34.0,26.3,30.14,SSW,212,3.0,8.0,73,0.00,,---,0.00,VWS V13.01,2013-01-06 09:23:00,
2013-01-06 04:28:00,34.0,26.3,30.14,SW,224,5.0,8.0,73,0.00,,---,0.00,VWS V13.01,2013-01-06 09:28:00,
2013-01-06 04:33:00,34.0,26.3,30.13,SSW,198,3.0,9.0,73,0.00,,---,0.00,VWS V13.01,2013-01-06 09:33:00,
2013-01-06 04:38:00,34.0,26.3,30.13,SW,224,4.0,9.0,73,0.00,,---,0.00,VWS V13.01,2013-01-06 09:38:00,
2013-01-06 04:43:00,34.0,26.3,30.13,SSW,207,5.0,9.0,73,0.00,,---,0.00,VWS V13.01,2013-01-06 09:43:00,
2013-01-06 04:48:00,34.1,26.4,30.12,SW,215,4.0,10.0,73,0.00,,---,0.00,VWS V13.01,2013-01-06 09:48:00,
2013-01-06 04:53:00,34.1,26.4,30.12,SSW,201,5.0,10.0,73,0.00,,---,0.00,VWS V13.01,2013-01-06 09:53:00,
2013-01-06 04:58:00,34.1,26.4,30.12,SW,218,4.0,10.0,73,0.00,,---,0.00,VWS V13.01,2013-01-06 09:58:00,
2013-01-06 05:03:00,34.1,26.4,30.12,SSW,202,3.0,9.0,73,0.00,,---,0.00,VWS V13.01,2013-01-06 10:03:00,
2013-01-06 05:08:00,34.1,26.4,30.12,SSW,194,5.0,9.0,73,0.00,,---,0.00,VWS V13.01,2013-01-06 10:08:00,
2013-01-06 05:13:00,34.1,26.4,30.12,SW,224,8.0,9.0,73,0.00,,---,0.00,VWS V13.01,2013-01-06 10:13:00,
2013-01-06 05:18:00,34.1,26.4,30.12,SSW,202,5.0,9.0,73,0.00,,---,0.00,VWS V13.01,2013-01-06 10:18:00,
2013-01-06 05:23:00,34.1,26.4,30.12,SW,223,3.0,9.0,73,0.00,,---,0.00,VWS V13.01,2013-01-06 10:23:00,
2013-01-06 05:28:00,34.1,26.7,30.12,SSW,202,4.0,9.0,74,0.00,,---,0.00,VWS V13.01,2013-01-06 10:28:00,
2013-01-06 05:33:00,34.1,26.7,30.11,SSW,208,5.0,6.0,74,0.00,,---,0.00,VWS V13.01,2013-01-06 10:33:00,
2013-01-06 05:38:00,34.0,26.6,30.12,SW,231,3.0,7.0,74,0.00,,---,0.00,VWS V13.01,2013-01-06 10:38:00,
2013-01-06 05:43:00,34.0,26.6,30.11,SW,224,3.0,7.0,74,0.00,,---,0.00,VWS V13.01,2013-01-06 10:43:00,
2013-01-06 05:48:00,33.8,26.7,30.12,SW,223,5.0,7.0,75,0.00,,---,0.00,VWS V13.01,2013-01-06 10:48:00,
2013-01-06 05:53:00,33.8,26.4,30.12,WSW,252,4.0,7.0,74,0.00,,---,0.00,VWS V13.01,2013-01-06 10:53:00,
2013-01-06 05:58:00,33.8,26.4,30.12,SW,221,6.0,7.0,74,0.00,,---,0.00,VWS V13.01,2013-01-06 10:58:00,
2013-01-06 06:03:00,33.8,26.7,30.12,SW,221,7.0,8.0,75,0.00,,---,0.00,VWS V13.01,2013-01-06 11:03:00,
2013-01-06 06:08:00,33.9,26.8,30.12,SW,221,4.0,8.0,75,0.00,,---,0.00,VWS V13.01,2013-01-06 11:08:00,
2013-01-06 06:13:00,33.9,26.8,30.12,SW,224,5.0,8.0,75,0.00,,---,0.00,VWS V13.01,2013-01-06 11:13:00,
2013-01-06 06:18:00,33.9,26.8,30.12,SW,222,5.0,8.0,75,0.00,,---,0.00,VWS V13.01,2013-01-06 11:18:00,
2013-01-06 06:23:00,33.9,26.8,30.12,SW,228,3.0,8.0,75,0.00,,---,0.00,VWS V13.01,2013-01-06 11:23:00,
2013-01-06 06:28:00,33.8,26.7,30.12,SW,221,3.0,8.0,75,0.00,,---,0.00,VWS V13.01,2013-01-06 11:28:00,
2013-01-06 06:33:00,33.8,26.7,30.12,SW,234,5.0,10.0,75,0.00,,---,0.00,VWS V13.01,2013-01-06 11:33:00,
2013-01-06 06:38:00,33.9,26.8,30.12,SW,236,6.0,10.0,75,0.00,,---,0.00,VWS V13.01,2013-01-06 11:38:00,
2013-01-06 06:43:00,33.9,26.8,30.12,SW,219,6.0,10.0,75,0.00,,---,0.00,VWS V13.01,2013-01-06 11:43:00,
2013-01-06 06:48:00,34.0,26.9,30.12,SW,220,6.0,10.0,75,0.00,,---,0.00,VWS V13.01,2013-01-06 11:48:00,
2013-01-06 06:53:00,34.0,26.9,30.12,WSW,240,7.0,10.0,75,0.00,,---,0.00,VWS V13.01,2013-01-06 11:53:00,
2013-01-06 06:58:00,34.0,26.9,30.12,SW,217,4.0,10.0,75,0.00,,---,0.00,VWS V13.01,2013-01-06 11:58:00,
2013-01-06 07:03:00,33.9,26.8,30.12,SW,223,4.0,5.0,75,0.00,,---,0.00,VWS V13.01,2013-01-06 12:03:00,
2013-01-06 07:08:00,33.8,27.0,30.11,SW,220,5.0,7.0,76,0.00,,---,0.00,VWS V13.01,2013-01-06 12:08:00,
2013-01-06 07:13:00,33.7,27.0,30.12,SW,226,5.0,9.0,76,0.00,,---,0.00,VWS V13.01,2013-01-06 12:13:00,
2013-01-06 07:18:00,33.8,26.7,30.12,SW,226,4.0,9.0,75,0.00,,---,0.00,VWS V13.01,2013-01-06 12:18:00,
2013-01-06 07:23:00,33.7,27.0,30.12,SW,231,1.0,9.0,76,0.00,,---,0.00,VWS V13.01,2013-01-06 12:23:00,
2013-01-06 07:28:00,33.7,27.0,30.11,SW,229,2.0,9.0,76,0.00,,---,0.00,VWS V13.01,2013-01-06 12:28:00,
2013-01-06 07:33:00,33.7,27.0,30.11,WSW,241,3.0,7.0,76,0.00,,---,0.00,VWS V13.01,2013-01-06 12:33:00,
2013-01-06 07:38:00,33.6,26.9,30.11,WSW,242,3.0,7.0,76,0.00,,---,0.00,VWS V13.01,2013-01-06 12:38:00,
2013-01-06 07:43:00,33.6,26.9,30.11,SW,223,4.0,7.0,76,0.00,,---,0.00,VWS V13.01,2013-01-06 12:43:00,
2013-01-06 07:48:00,33.5,26.8,30.11,SW,234,3.0,7.0,76,0.00,,---,0.00,VWS V13.01,2013-01-06 12:48:00,
2013-01-06 07:53:00,33.5,26.8,30.11,SW,225,3.0,7.0,76,0.00,,---,0.00,VWS V13.01,2013-01-06 12:53:00,
2013-01-06 07:58:00,33.5,26.8,30.11,SSW,211,1.0,7.0,76,0.00,,---,0.00,VWS V13.01,2013-01-06 12:58:00,
2013-01-06 08:03:00,33.5,27.1,30.11,WSW,244,2.0,6.0,77,0.00,,---,0.00,VWS V13.01,2013-01-06 13:03:00,
2013-01-06 08:08:00,33.6,26.9,30.11,SW,226,6.0,8.0,76,0.00,,---,0.00,VWS V13.01,2013-01-06 13:08:00,
2013-01-06 08:13:00,33.7,27.0,30.11,SSW,195,2.0,8.0,76,0.00,,---,0.00,VWS V13.01,2013-01-06 13:13:00,
2013-01-06 08:18:00,33.7,27.0,30.11,SW,219,1.0,8.0,76,0.00,,---,0.00,VWS V13.01,2013-01-06 13:18:00,
2013-01-06 08:23:00,33.7,27.3,30.11,SW,219,4.0,8.0,77,0.00,,---,0.00,VWS V13.01,2013-01-06 13:23:00,
2013-01-06 08:28:00,33.8,27.0,30.11,WSW,238,7.0,8.0,76,0.00,,---,0.00,VWS V13.01,2013-01-06 13:28:00,
2013-01-06 08:33:00,33.9,27.1,30.11,SSW,212,3.0,8.0,76,0.00,,---,0.00,VWS V13.01,2013-01-06 13:33:00,
2013-01-06 08:38:00,34.1,27.3,30.11,SSW,207,6.0,9.0,76,0.00,,---,0.00,VWS V13.01,2013-01-06 13:38:00,
2013-01-06 08:43:00,34.2,27.4,30.11,SSW,207,4.0,9.0,76,0.00,,---,0.00,VWS V13.01,2013-01-06 13:43:00,
2013-01-06 08:48:00,34.3,27.5,30.12,SW,223,6.0,9.0,76,0.00,,---,0.00,VWS V13.01,2013-01-06 13:48:00,
2013-01-06 08:53:00,34.4,27.6,30.12,SW,228,4.0,9.0,76,0.00,,---,0.00,VWS V13.01,2013-01-06 13:53:00,
2013-01-06 08:58:00,34.6,27.5,30.12,SW,219,5.0,9.0,75,0.00,,---,0.00,VWS V13.01,2013-01-06 13:58:00,
2013-01-06 09:03:00,34.7,27.6,30.11,SSW,203,5.0,8.0,75,0.00,,---,0.00,VWS V13.01,2013-01-06 14:03:00,
2013-01-06 09:08:00,34.8,27.7,30.12,SW,219,3.0,8.0,75,0.00,,---,0.00,VWS V13.01,2013-01-06 14:08:00,
2013-01-06 09:13:00,35.0,27.9,30.11,SSW,202,6.0,10.0,75,0.00,,---,0.00,VWS V13.01,2013-01-06 14:13:00,
2013-01-06 09:18:00,35.0,27.9,30.11,SW,215,4.0,10.0,75,0.00,,---,0.00,VWS V13.01,2013-01-06 14:18:00,
2013-01-06 09:23:00,35.1,28.0,30.12,SW,234,7.0,10.0,75,0.00,,---,0.00,VWS V13.01,2013-01-06 14:23:00,
2013-01-06 09:28:00,35.2,27.8,30.11,SSW,209,7.0,10.0,74,0.00,,---,0.00,VWS V13.01,2013-01-06 14:28:00,
2013-01-06 09:33:00,35.3,27.9,30.11,SW,223,7.0,10.0,74,0.00,,---,0.00,VWS V13.01,2013-01-06 14:33:00,
2013-01-06 09:38:00,35.4,28.0,30.11,SW,219,7.0,12.0,74,0.00,,---,0.00,VWS V13.01,2013-01-06 14:38:00,
2013-01-06 09:43:00,35.5,28.0,30.12,WSW,237,5.0,12.0,74,0.00,,---,0.00,VWS V13.01,2013-01-06 14:43:00,
2013-01-06 09:48:00,35.6,28.1,30.12,South,188,5.0,12.0,74,0.00,,---,0.00,VWS V13.01,2013-01-06 14:48:00,
2013-01-06 09:53:00,35.7,28.2,30.12,SSW,207,5.0,12.0,74,0.00,,---,0.00,VWS V13.01,2013-01-06 14:53:00,
2013-01-06 09:58:00,35.8,28.0,30.11,SW,229,5.0,12.0,73,0.00,,---,0.00,VWS V13.01,2013-01-06 14:58:00,
2013-01-06 10:03:00,35.9,28.4,30.12,SW,230,4.0,8.0,74,0.00,,---,0.00,VWS V13.01,2013-01-06 15:03:00,
2013-01-06 10:08:00,36.0,28.2,30.11,SW,216,6.0,9.0,73,0.00,,---,0.00,VWS V13.01,2013-01-06 15:08:00,
2013-01-06 10:13:00,36.1,28.3,30.12,SW,229,8.0,9.0,73,0.00,,---,0.00,VWS V13.01,2013-01-06 15:13:00,
2013-01-06 10:18:00,36.1,28.3,30.12,WSW,239,4.0,10.0,73,0.00,,---,0.00,VWS V13.01,2013-01-06 15:18:00,
2013-01-06 10:23:00,36.2,28.4,30.12,SSW,212,6.0,10.0,73,0.00,,---,0.00,VWS V13.01,2013-01-06 15:23:00,
2013-01-06 10:28:00,36.3,28.5,30.12,South,176,5.0,10.0,73,0.00,,---,0.00,VWS V13.01,2013-01-06 15:28:00,
2013-01-06 10:33:00,36.4,28.6,30.11,SSW,196,3.0,8.0,73,0.00,,---,0.00,VWS V13.01,2013-01-06 15:33:00,
2013-01-06 10:38:00,36.4,28.6,30.11,SW,225,3.0,9.0,73,0.00,,---,0.00,VWS V13.01,2013-01-06 15:38:00,
2013-01-06 10:43:00,36.5,28.7,30.11,SSW,209,6.0,10.0,73,0.00,,---,0.00,VWS V13.01,2013-01-06 15:43:00,
2013-01-06 10:48:00,36.6,28.8,30.11,SW,217,4.0,11.0,73,0.00,,---,0.00,VWS V13.01,2013-01-06 15:48:00,
2013-01-06 10:53:00,36.8,28.6,30.11,SW,230,7.0,11.0,72,0.00,,---,0.00,VWS V13.01,2013-01-06 15:53:00,
2013-01-06 10:58:00,36.9,28.7,30.10,SSW,201,6.0,11.0,72,0.00,,---,0.00,VWS V13.01,2013-01-06 15:58:00,
2013-01-06 11:03:00,36.9,28.7,30.10,SSW,197,5.0,12.0,72,0.00,,---,0.00,VWS V13.01,2013-01-06 16:03:00,
2013-01-06 11:08:00,37.0,28.8,30.10,SW,221,8.0,12.0,72,0.00,,---,0.00,VWS V13.01,2013-01-06 16:08:00,
2013-01-06 11:13:00,37.1,28.9,30.10,SW,218,8.0,12.0,72,0.00,,---,0.00,VWS V13.01,2013-01-06 16:13:00,
2013-01-06 11:18:00,37.1,28.9,30.09,SW,223,5.0,12.0,72,0.00,,---,0.00,VWS V13.01,2013-01-06 16:18:00,
2013-01-06 11:23:00,37.2,29.0,30.09,SSW,201,4.0,12.0,72,0.00,,---,0.00,VWS V13.01,2013-01-06 16:23:00,
2013-01-06 11:28:00,37.4,29.2,30.08,SSW,213,6.0,12.0,72,0.00,,---,0.00,VWS V13.01,2013-01-06 16:28:00,
2013-01-06 11:33:00,37.6,29.1,30.08,SW,220,4.0,12.0,71,0.00,,---,0.00,VWS V13.01,2013-01-06 16:33:00,
2013-01-06 11:38:00,37.7,29.2,30.08,SW,234,5.0,12.0,71,0.00,,---,0.00,VWS V13.01,2013-01-06 16:38:00,
2013-01-06 11:43:00,37.9,29.0,30.08,SW,233,10.0,12.0,70,0.00,,---,0.00,VWS V13.01,2013-01-06 16:43:00,
2013-01-06 11:48:00,38.0,29.1,30.08,SW,223,9.0,14.0,70,0.00,,---,0.00,VWS V13.01,2013-01-06 16:48:00,
2013-01-06 11:53:00,38.1,29.2,30.07,SW,215,9.0,14.0,70,0.00,,---,0.00,VWS V13.01,2013-01-06 16:53:00,
2013-01-06 11:58:00,38.2,29.3,30.07,SSW,207,3.0,14.0,70,0.00,,---,0.00,VWS V13.01,2013-01-06 16:58:00,
2013-01-06 12:03:00,38.3,29.4,30.07,SSW,210,7.0,10.0,70,0.00,,---,0.00,VWS V13.01,2013-01-06 17:03:00,
2013-01-06 12:08:00,38.3,29.4,30.07,SSW,208,7.0,12.0,70,0.00,,---,0.00,VWS V13.01,2013-01-06 17:08:00,
2013-01-06 12:14:00,38.4,29.5,30.06,SSW,204,5.0,12.0,70,0.00,,---,0.00,VWS V13.01,2013-01-06 17:14:00,
2013-01-06 12:19:00,38.4,29.1,30.06,SW,221,6.0,12.0,69,0.00,,---,0.00,VWS V13.01,2013-01-06 17:19:00,
2013-01-06 12:24:00,38.4,29.1,30.05,SSW,206,7.0,12.0,69,0.00,,---,0.00,VWS V13.01,2013-01-06 17:24:00,
2013-01-06 12:29:00,38.4,29.1,30.05,WSW,246,3.0,12.0,69,0.00,,---,0.00,VWS V13.01,2013-01-06 17:29:00,
2013-01-06 12:34:00,38.4,29.1,30.05,SW,220,9.0,10.0,69,0.00,,---,0.00,VWS V13.01,2013-01-06 17:34:00,
2013-01-06 12:39:00,38.4,29.1,30.05,SW,224,7.0,11.0,69,0.00,,---,0.00,VWS V13.01,2013-01-06 17:39:00,
2013-01-06 12:43:00,38.4,29.1,30.04,SSW,211,4.0,13.0,69,0.00,,---,0.00,VWS V13.01,2013-01-06 17:43:00,
2013-01-06 12:49:00,38.5,29.2,30.04,SW,221,6.0,13.0,69,0.00,,---,0.00,VWS V13.01,2013-01-06 17:49:00,
2013-01-06 12:53:00,38.5,29.2,30.04,SW,226,5.0,13.0,69,0.00,,---,0.00,VWS V13.01,2013-01-06 17:53:00,
2013-01-06 12:59:00,38.6,29.0,30.03,SW,225,5.0,13.0,68,0.00,,---,0.00,VWS V13.01,2013-01-06 17:59:00,
2013-01-06 13:04:00,38.7,29.1,30.03,SW,221,6.0,10.0,68,0.00,,---,0.00,VWS V13.01,2013-01-06 18:04:00,
2013-01-06 13:09:00,38.7,29.1,30.03,SSW,212,9.0,12.0,68,0.00,,---,0.00,VWS V13.01,2013-01-06 18:09:00,
2013-01-06 13:14:00,38.7,29.1,30.03,SW,230,5.0,12.0,68,0.00,,---,0.00,VWS V13.01,2013-01-06 18:14:00,
2013-01-06 13:19:00,38.7,29.1,30.03,SW,221,5.0,12.0,68,0.00,,---,0.00,VWS V13.01,2013-01-06 18:19:00,
2013-01-06 13:24:00,38.8,29.2,30.03,SW,215,5.0,12.0,68,0.00,,---,0.00,VWS V13.01,2013-01-06 18:24:00,
2013-01-06 13:29:00,38.9,29.2,30.03,SW,215,4.0,12.0,68,0.00,,---,0.00,VWS V13.01,2013-01-06 18:29:00,
2013-01-06 13:34:00,38.9,29.2,30.03,SW,228,5.0,9.0,68,0.00,,---,0.00,VWS V13.01,2013-01-06 18:34:00,
2013-01-06 13:38:00,38.9,29.2,30.03,SSW,208,5.0,10.0,68,0.00,,---,0.00,VWS V13.01,2013-01-06 18:38:00,
2013-01-06 13:43:00,38.9,29.2,30.03,SW,229,6.0,10.0,68,0.00,,---,0.00,VWS V13.01,2013-01-06 18:43:00,
2013-01-06 13:49:00,38.8,29.2,30.03,SW,218,4.0,11.0,68,0.00,,---,0.00,VWS V13.01,2013-01-06 18:49:00,
2013-01-06 13:54:00,38.8,29.2,30.03,SSW,210,5.0,12.0,68,0.00,,---,0.00,VWS V13.01,2013-01-06 18:54:00,
2013-01-06 13:59:00,38.7,29.4,30.03,SSW,199,8.0,12.0,69,0.00,,---,0.00,VWS V13.01,2013-01-06 18:59:00,
2013-01-06 14:04:00,38.6,29.3,30.03,SSW,195,6.0,8.0,69,0.00,,---,0.00,VWS V13.01,2013-01-06 19:04:00,
2013-01-06 14:08:00,38.6,29.3,30.03,SW,219,3.0,9.0,69,0.00,,---,0.00,VWS V13.01,2013-01-06 19:08:00,
2013-01-06 14:13:00,38.5,29.6,30.03,SW,215,7.0,9.0,70,0.00,,---,0.00,VWS V13.01,2013-01-06 19:13:00,
2013-01-06 14:18:00,38.4,29.5,30.04,SSW,202,6.0,9.0,70,0.00,,---,0.00,VWS V13.01,2013-01-06 19:18:00,
2013-01-06 14:23:00,38.4,29.5,30.03,SSW,194,6.0,10.0,70,0.00,,---,0.00,VWS V13.01,2013-01-06 19:23:00,
2013-01-06 14:28:00,38.4,29.5,30.03,SW,229,6.0,10.0,70,0.00,,---,0.00,VWS V13.01,2013-01-06 19:28:00,
2013-01-06 14:34:00,38.3,29.4,30.03,SSW,213,3.0,8.0,70,0.00,,---,0.00,VWS V13.01,2013-01-06 19:34:00,
2013-01-06 14:39:00,38.3,29.4,30.03,SSW,209,4.0,10.0,70,0.00,,---,0.00,VWS V13.01,2013-01-06 19:39:00,
2013-01-06 14:44:00,38.3,29.4,30.03,SW,230,5.0,10.0,70,0.00,,---,0.00,VWS V13.01,2013-01-06 19:44:00,
2013-01-06 14:49:00,38.3,29.4,30.03,SSW,202,4.0,10.0,70,0.00,,---,0.00,VWS V13.01,2013-01-06 19:49:00,
2013-01-06 14:54:00,38.4,29.5,30.03,SSW,212,3.0,10.0,70,0.00,,---,0.00,VWS V13.01,2013-01-06 19:54:00,
2013-01-06 14:59:00,38.4,29.5,30.03,SW,226,5.0,10.0,70,0.00,,---,0.00,VWS V13.01,2013-01-06 19:59:00,
2013-01-06 15:04:00,38.4,29.5,30.03,SSW,207,4.0,9.0,70,0.00,,---,0.00,VWS V13.01,2013-01-06 20:04:00,
2013-01-06 15:09:00,38.4,29.5,30.03,SW,221,6.0,10.0,70,0.00,,---,0.00,VWS V13.01,2013-01-06 20:09:00,
2013-01-06 15:11:00,38.4,29.5,30.03,SSW,197,7.0,10.0,70,0.00,,---,0.00,VWS V13.01,2013-01-06 20:11:00,
2013-01-06 15:13:00,38.4,29.5,30.04,SSW,200,5.0,10.0,70,0.00,,---,0.00,VWS V13.01,2013-01-06 20:13:00,
2013-01-06 15:18:00,38.4,29.5,30.03,SSW,192,8.0,10.0,70,0.00,,---,0.00,VWS V13.01,2013-01-06 20:18:00,
2013-01-06 15:23:00,38.4,29.5,30.03,WSW,244,8.0,10.0,70,0.00,,---,0.00,VWS V13.01,2013-01-06 20:23:00,
2013-01-06 15:28:00,38.4,29.5,30.04,SW,221,6.0,10.0,70,0.00,,---,0.00,VWS V13.01,2013-01-06 20:28:00,
2013-01-06 15:33:00,38.3,29.4,30.04,SW,217,6.0,8.0,70,0.00,,---,0.00,VWS V13.01,2013-01-06 20:33:00,
2013-01-06 15:38:00,38.3,29.4,30.04,SW,229,4.0,11.0,70,0.00,,---,0.00,VWS V13.01,2013-01-06 20:38:00,
2013-01-06 15:43:00,38.2,29.3,30.04,SW,217,6.0,11.0,70,0.00,,---,0.00,VWS V13.01,2013-01-06 20:43:00,
2013-01-06 15:48:00,38.2,29.6,30.04,SW,230,5.0,11.0,71,0.00,,---,0.00,VWS V13.01,2013-01-06 20:48:00,
2013-01-06 15:53:00,38.1,29.2,30.05,SSW,205,4.0,11.0,70,0.00,,---,0.00,VWS V13.01,2013-01-06 20:53:00,
2013-01-06 15:58:00,38.1,29.5,30.05,SW,232,6.0,11.0,71,0.00,,---,0.00,VWS V13.01,2013-01-06 20:58:00,
2013-01-06 16:00:00,38.1,29.5,30.05,SW,225,6.0,8.0,71,0.00,,---,0.00,VWS V13.01,2013-01-06 21:00:00,
2013-01-06 16:05:00,38.0,29.5,30.05,SW,229,4.0,8.0,71,0.00,,---,0.00,VWS V13.01,2013-01-06 21:05:00,
2013-01-06 16:10:00,38.0,29.5,30.05,SSW,204,5.0,9.0,71,0.00,,---,0.00,VWS V13.01,2013-01-06 21:10:00,
2013-01-06 16:15:00,38.0,29.5,30.05,SSW,207,4.0,9.0,71,0.00,,---,0.00,VWS V13.01,2013-01-06 21:15:00,
2013-01-06 16:20:00,37.9,29.4,30.05,SW,232,3.0,11.0,71,0.00,,---,0.00,VWS V13.01,2013-01-06 21:20:00,
2013-01-06 16:25:00,37.9,29.4,30.06,SSW,207,4.0,11.0,71,0.00,,---,0.00,VWS V13.01,2013-01-06 21:25:00,
2013-01-06 16:30:00,37.9,29.4,30.06,SSW,209,3.0,5.0,71,0.00,,---,0.00,VWS V13.01,2013-01-06 21:30:00,
2013-01-06 16:35:00,37.8,29.6,30.06,SW,222,3.0,10.0,72,0.00,,---,0.00,VWS V13.01,2013-01-06 21:35:00,
2013-01-06 16:40:00,37.8,29.6,30.06,SW,219,4.0,10.0,72,0.00,,---,0.00,VWS V13.01,2013-01-06 21:40:00,
2013-01-06 16:45:00,37.7,29.5,30.06,SSW,208,4.0,10.0,72,0.00,,---,0.00,VWS V13.01,2013-01-06 21:45:00,
2013-01-06 16:50:00,37.7,29.5,30.06,SW,221,4.0,10.0,72,0.00,,---,0.00,VWS V13.01,2013-01-06 21:50:00,
2013-01-06 16:55:00,37.7,29.5,30.06,SW,221,5.0,10.0,72,0.00,,---,0.00,VWS V13.01,2013-01-06 21:55:00,
2013-01-06 17:00:00,37.7,29.8,30.07,SW,232,4.0,7.0,73,0.00,,---,0.00,VWS V13.01,2013-01-06 22:00:00,
2013-01-06 17:05:00,37.6,29.7,30.07,WSW,238,4.0,8.0,73,0.00,,---,0.00,VWS V13.01,2013-01-06 22:05:00,
2013-01-06 17:10:00,37.5,29.6,30.07,SW,218,5.0,11.0,73,0.00,,---,0.00,VWS V13.01,2013-01-06 22:10:00,
2013-01-06 17:15:00,37.5,30.0,30.07,SW,231,5.0,11.0,74,0.00,,---,0.00,VWS V13.01,2013-01-06 22:15:00,
2013-01-06 17:20:00,37.5,30.0,30.07,WSW,239,6.0,11.0,74,0.00,,---,0.00,VWS V13.01,2013-01-06 22:20:00,
2013-01-06 17:25:00,37.5,30.0,30.07,SW,230,4.0,11.0,74,0.00,,---,0.00,VWS V13.01,2013-01-06 22:25:00,
2013-01-06 17:30:00,37.5,30.0,30.07,SSW,203,6.0,8.0,74,0.00,,---,0.00,VWS V13.01,2013-01-06 22:30:00,
2013-01-06 17:35:00,37.4,30.2,30.08,SSW,206,4.0,8.0,75,0.00,,---,0.00,VWS V13.01,2013-01-06 22:35:00,
2013-01-06 17:40:00,37.3,30.1,30.08,SSW,213,10.0,10.0,75,0.00,,---,0.00,VWS V13.01,2013-01-06 22:40:00,
2013-01-06 17:45:00,37.3,30.1,30.08,WSW,239,7.0,10.0,75,0.00,,---,0.00,VWS V13.01,2013-01-06 22:45:00,
2013-01-06 17:50:00,37.2,30.0,30.08,SW,227,6.0,12.0,75,0.00,,---,0.00,VWS V13.01,2013-01-06 22:50:00,
2013-01-06 17:55:00,37.2,30.4,30.08,WSW,254,3.0,12.0,76,0.00,,---,0.00,VWS V13.01,2013-01-06 22:55:00,
2013-01-06 18:00:00,37.2,30.4,30.08,WSW,250,8.0,10.0,76,0.00,,---,0.00,VWS V13.01,2013-01-06 23:00:00,
2013-01-06 18:05:00,37.1,30.6,30.09,SW,235,4.0,10.0,77,0.00,,---,0.00,VWS V13.01,2013-01-06 23:05:00,
2013-01-06 18:10:00,37.0,30.5,30.09,WSW,252,5.0,11.0,77,0.00,,---,0.00,VWS V13.01,2013-01-06 23:10:00,
2013-01-06 18:15:00,36.9,30.4,30.09,SW,234,4.0,11.0,77,0.00,,---,0.00,VWS V13.01,2013-01-06 23:15:00,
2013-01-06 18:20:00,36.9,30.7,30.09,SW,223,6.0,11.0,78,0.00,,---,0.00,VWS V13.01,2013-01-06 23:20:00,
2013-01-06 18:25:00,36.8,30.6,30.10,SW,223,5.0,11.0,78,0.00,,---,0.00,VWS V13.01,2013-01-06 23:25:00,
2013-01-06 18:30:00,36.7,30.5,30.10,WSW,251,3.0,5.0,78,0.00,,---,0.00,VWS V13.01,2013-01-06 23:30:00,
2013-01-06 18:35:00,36.7,30.5,30.10,WSW,238,5.0,7.0,78,0.00,,---,0.00,VWS V13.01,2013-01-06 23:35:00,
2013-01-06 18:40:00,36.6,30.7,30.10,SW,223,7.0,8.0,79,0.00,,---,0.00,VWS V13.01,2013-01-06 23:40:00,
2013-01-06 18:45:00,36.6,30.7,30.11,WSW,242,1.0,8.0,79,0.00,,---,0.00,VWS V13.01,2013-01-06 23:45:00,
2013-01-06 18:50:00,36.6,30.7,30.11,WSW,248,3.0,8.0,79,0.00,,---,0.00,VWS V13.01,2013-01-06 23:50:00,
2013-01-06 18:55:00,36.5,30.6,30.11,WSW,243,2.0,8.0,79,0.00,,---,0.00,VWS V13.01,2013-01-06 23:55:00,
2013-01-06 19:00:00,36.5,30.6,30.11,West,262,3.0,5.0,79,0.00,,---,0.00,VWS V13.01,2013-01-07 00:00:00,
2013-01-06 19:05:00,36.5,30.6,30.11,WSW,238,2.0,5.0,79,0.00,,---,0.00,VWS V13.01,2013-01-07 00:05:00,
2013-01-06 19:10:00,36.5,30.6,30.11,WSW,252,3.0,6.0,79,0.00,,---,0.00,VWS V13.01,2013-01-07 00:10:00,
2013-01-06 19:15:00,36.5,30.6,30.12,SW,225,4.0,8.0,79,0.00,,---,0.00,VWS V13.01,2013-01-07 00:15:00,
2013-01-06 19:20:00,36.5,30.6,30.11,WSW,240,3.0,8.0,79,0.00,,---,0.00,VWS V13.01,2013-01-07 00:20:00,
2013-01-06 19:25:00,36.5,30.6,30.12,SW,236,6.0,8.0,79,0.00,,---,0.00,VWS V13.01,2013-01-07 00:25:00,
2013-01-06 19:30:00,36.5,30.9,30.12,SW,231,3.0,3.0,80,0.00,,---,0.00,VWS V13.01,2013-01-07 00:30:00,
2013-01-06 19:35:00,36.4,30.8,30.12,SW,234,5.0,7.0,80,0.00,,---,0.00,VWS V13.01,2013-01-07 00:35:00,
2013-01-06 19:40:00,36.4,30.8,30.12,WSW,256,6.0,10.0,80,0.00,,---,0.00,VWS V13.01,2013-01-07 00:40:00,
2013-01-06 19:45:00,36.4,31.1,30.12,WSW,246,5.0,10.0,81,0.00,,---,0.00,VWS V13.01,2013-01-07 00:45:00,
2013-01-06 19:50:00,36.4,31.1,30.13,SW,236,5.0,10.0,81,0.00,,---,0.00,VWS V13.01,2013-01-07 00:50:00,
2013-01-06 19:55:00,36.3,31.0,30.13,WSW,248,6.0,10.0,81,0.00,,---,0.00,VWS V13.01,2013-01-07 00:55:00,
2013-01-06 20:00:00,36.3,31.0,30.13,WSW,239,6.0,9.0,81,0.00,,---,0.00,VWS V13.01,2013-01-07 01:00:00,
2013-01-06 20:05:00,36.2,31.2,30.13,WSW,251,4.0,9.0,82,0.00,,---,0.00,VWS V13.01,2013-01-07 01:05:00,
2013-01-06 20:10:00,36.1,31.1,30.13,SW,232,3.0,9.0,82,0.00,,---,0.00,VWS V13.01,2013-01-07 01:10:00,
2013-01-06 20:15:00,36.1,31.1,30.13,SW,227,4.0,9.0,82,0.00,,---,0.00,VWS V13.01,2013-01-07 01:15:00,
2013-01-06 20:21:00,36.1,31.1,30.13,WSW,244,1.0,9.0,82,0.00,,---,0.00,VWS V13.01,2013-01-07 01:21:00,
2013-01-06 20:25:00,36.1,31.5,30.14,SW,225,2.0,9.0,83,0.00,,---,0.00,VWS V13.01,2013-01-07 01:25:00,
2013-01-06 20:30:00,36.0,31.4,30.14,SW,229,5.0,8.0,83,0.00,,---,0.00,VWS V13.01,2013-01-07 01:30:00,
2013-01-06 20:35:00,36.1,31.5,30.14,West,260,6.0,8.0,83,0.00,,---,0.00,VWS V13.01,2013-01-07 01:35:00,
2013-01-06 20:40:00,36.0,31.4,30.14,West,271,4.0,8.0,83,0.00,,---,0.00,VWS V13.01,2013-01-07 01:40:00,
2013-01-06 20:45:00,36.0,31.4,30.14,WSW,245,3.0,8.0,83,0.00,,---,0.00,VWS V13.01,2013-01-07 01:45:00,
2013-01-06 20:50:00,36.0,31.4,30.14,SSW,204,2.0,8.0,83,0.00,,---,0.00,VWS V13.01,2013-01-07 01:50:00,
2013-01-06 20:55:00,35.9,31.2,30.14,West,270,3.0,9.0,83,0.00,,---,0.00,VWS V13.01,2013-01-07 01:55:00,
2013-01-06 21:00:00,35.9,31.2,30.14,WSW,237,3.0,8.0,83,0.00,,---,0.00,VWS V13.01,2013-01-07 02:00:00,
2013-01-06 21:05:00,35.9,31.2,30.14,West,259,3.0,8.0,83,0.00,,---,0.00,VWS V13.01,2013-01-07 02:05:00,
2013-01-06 21:11:00,35.8,31.1,30.14,WSW,257,1.0,8.0,83,0.00,,---,0.00,VWS V13.01,2013-01-07 02:11:00,
2013-01-06 21:15:00,35.8,31.1,30.15,SW,232,6.0,8.0,83,0.00,,---,0.00,VWS V13.01,2013-01-07 02:15:00,
2013-01-06 21:20:00,35.8,31.1,30.15,WSW,244,2.0,9.0,83,0.00,,---,0.00,VWS V13.01,2013-01-07 02:20:00,
2013-01-06 21:25:00,35.8,31.1,30.15,West,266,3.0,9.0,83,0.00,,---,0.00,VWS V13.01,2013-01-07 02:25:00,
2013-01-06 21:30:00,35.8,31.1,30.15,WSW,239,5.0,6.0,83,0.00,,---,0.00,VWS V13.01,2013-01-07 02:30:00,
2013-01-06 21:35:00,35.7,31.0,30.15,WSW,252,2.0,8.0,83,0.00,,---,0.00,VWS V13.01,2013-01-07 02:35:00,
2013-01-06 21:41:00,35.7,31.4,30.16,WSW,256,5.0,8.0,84,0.00,,---,0.00,VWS V13.01,2013-01-07 02:41:00,
2013-01-06 21:46:00,35.7,31.4,30.16,WSW,239,4.0,8.0,84,0.00,,---,0.00,VWS V13.01,2013-01-07 02:46:00,
2013-01-06 21:51:00,35.7,31.4,30.16,WSW,238,3.0,8.0,84,0.00,,---,0.00,VWS V13.01,2013-01-07 02:51:00,
2013-01-06 21:56:00,35.7,31.4,30.16,SW,234,3.0,8.0,84,0.00,,---,0.00,VWS V13.01,2013-01-07 02:56:00,
2013-01-06 22:01:00,35.7,31.4,30.17,WSW,244,3.0,6.0,84,0.00,,---,0.00,VWS V13.01,2013-01-07 03:01:00,
2013-01-06 22:06:00,35.7,31.4,30.17,WSW,247,2.0,6.0,84,0.00,,---,0.00,VWS V13.01,2013-01-07 03:06:00,
2013-01-06 22:11:00,35.6,31.2,30.17,West,264,7.0,7.0,84,0.00,,---,0.00,VWS V13.01,2013-01-07 03:11:00,
2013-01-06 22:16:00,35.6,31.2,30.17,SW,234,8.0,9.0,84,0.00,,---,0.00,VWS V13.01,2013-01-07 03:16:00,
2013-01-06 22:21:00,35.6,31.2,30.17,WSW,252,3.0,9.0,84,0.00,,---,0.00,VWS V13.01,2013-01-07 03:21:00,
2013-01-06 22:26:00,35.6,31.2,30.17,WSW,246,2.0,9.0,84,0.00,,---,0.00,VWS V13.01,2013-01-07 03:26:00,
2013-01-06 22:31:00,35.6,31.2,30.17,WSW,254,4.0,6.0,84,0.00,,---,0.00,VWS V13.01,2013-01-07 03:31:00,
2013-01-06 22:36:00,35.6,31.2,30.18,WNW,284,0.0,7.0,84,0.00,,---,0.00,VWS V13.01,2013-01-07 03:36:00,
2013-01-06 22:41:00,35.5,31.1,30.18,WSW,237,4.0,7.0,84,0.00,,---,0.00,VWS V13.01,2013-01-07 03:41:00,
2013-01-06 22:46:00,35.5,31.1,30.18,WSW,248,3.0,8.0,84,0.00,,---,0.00,VWS V13.01,2013-01-07 03:46:00,
2013-01-06 22:51:00,35.5,31.1,30.19,WSW,245,6.0,8.0,84,0.00,,---,0.00,VWS V13.01,2013-01-07 03:51:00,
2013-01-06 22:56:00,35.5,31.1,30.19,WSW,257,2.0,8.0,84,0.00,,---,0.00,VWS V13.01,2013-01-07 03:56:00,
2013-01-06 23:01:00,35.5,31.1,30.19,West,268,4.0,4.0,84,0.00,,---,0.00,VWS V13.01,2013-01-07 04:01:00,
2013-01-06 23:06:00,35.5,31.1,30.20,WSW,257,2.0,7.0,84,0.00,,---,0.00,VWS V13.01,2013-01-07 04:06:00,
2013-01-06 23:11:00,35.5,31.1,30.20,WSW,252,4.0,7.0,84,0.00,,---,0.00,VWS V13.01,2013-01-07 04:11:00,
2013-01-06 23:16:00,35.4,31.4,30.21,West,261,2.0,7.0,85,0.00,,---,0.00,VWS V13.01,2013-01-07 04:16:00,
2013-01-06 23:21:00,35.3,31.2,30.21,WSW,238,6.0,10.0,85,0.00,,---,0.00,VWS V13.01,2013-01-07 04:21:00,
2013-01-06 23:26:00,35.0,30.7,30.21,WNW,286,6.0,14.0,84,0.00,,---,0.00,VWS V13.01,2013-01-07 04:26:00,
2013-01-06 23:31:00,34.8,30.5,30.21,NW,305,6.0,9.0,84,0.00,,---,0.00,VWS V13.01,2013-01-07 04:31:00,
2013-01-06 23:36:00,34.7,30.4,30.21,West,269,6.0,10.0,84,0.00,,---,0.00,VWS V13.01,2013-01-07 04:36:00,
2013-01-06 23:41:00,34.5,30.2,30.21,WSW,252,3.0,10.0,84,0.00,,---,0.00,VWS V13.01,2013-01-07 04:41:00,
2013-01-06 23:46:00,34.4,30.4,30.21,WSW,237,3.0,10.0,85,0.00,,---,0.00,VWS V13.01,2013-01-07 04:46:00,
2013-01-06 23:51:00,34.4,30.1,30.22,West,261,0.0,10.0,84,0.00,,---,0.00,VWS V13.01,2013-01-07 04:51:00,
2013-01-06 23:56:00,34.3,30.3,30.22,West,274,5.0,10.0,85,0.00,,---,0.00,VWS V13.01,2013-01-07 04:56:00,